Tracking 25711 objects as of 22-May-2022
HD Live streaming from Space Station
objects crossing your sky now

ABS 3

Track ABS 3 now!
ABS 3 is classified as:


NORAD ID: 24901
Int'l Code: 1997-042A
Perigee: 36,062.7 km
Apogee: 36,094.3 km
Inclination: 8.2 °
Period: 1,450.7 minutes
Semi major axis: 42449 km
RCS: 10 m2 (large)
Launch date: August 19, 1997
Source: People's Republic of China (PRC)
Launch site: Xichang Space Center, China (XSC)

Most powerful telecommunications satellite in service in the Asia-Pacific region; 30 C-band, 24 Ku-band transponders; 190 high fidelity channels and 50,000 simultaneous telephone links.
aabbcc
Your satellite tracking list
Your tracking list is empty




NASA's NSSDC Master Catalog

Two Line Element Set (TLE):
1 24901U 97042A   22142.56771858 -.00000217  00000-0  00000-0 0  9997
2 24901   8.2327  53.7615 0003729  19.1650 181.8188  0.99264594 90473
Source of the keplerian elements: AFSPC